When you browse on this site, cookies collect data to enhance your experience and personalize the content and advertising you see.
Visit our Privacy Policy to learn more. By continuing to use the site, you agree to this use of cookies and data.
  • In Lithuania
  • List of Countries
  • For 7 days
  • Water Temperature
  • Weather Map
  • Weather Widgets
  • user-avatar
    Login

    Hourly Weather Nachod

    Today, 6 April, Monday

    Time Temperature Precipitation Wind Pressure Humidity
    00:00 +4°C° 0 mm 2 mps 732 mmHg 69%
    01:00 +4°C° 0 mm 2 mps 732 mmHg 68%
    02:00 +4°C° 0 mm 2 mps 732 mmHg 69%
    03:00 +3°C° 0 mm 3 mps 732 mmHg 69%
    04:00 +4°C° 0 mm 3 mps 732 mmHg 70%
    05:00 +4°C° 0 mm 3 mps 732 mmHg 68%
    06:00 +5°C° 0 mm 3 mps 732 mmHg 67%
    07:00 +7°C° 0 mm 3 mps 732 mmHg 65%
    08:00 +7°C° 0 mm 4 mps 733 mmHg 61%
    09:00 +9°C° 0 mm 5 mps 733 mmHg 56%
    10:00 +11°C° 0 mm 6 mps 733 mmHg 52%
    11:00 +12°C° 0 mm 7 mps 733 mmHg 51%
    12:00 +14°C° 0 mm 7 mps 733 mmHg 50%
    13:00 +15°C° 0 mm 7 mps 733 mmHg 49%
    14:00 +15°C° 0 mm 7 mps 733 mmHg 50%
    15:00 +14°C° 0 mm 7 mps 733 mmHg 51%
    16:00 +14°C° 0 mm 7 mps 733 mmHg 52%
    17:00 +13°C° 0 mm 6 mps 733 mmHg 56%
    18:00 +10°C° 0 mm 5 mps 733 mmHg 60%
    19:00 +8°C° 0 mm 4 mps 732 mmHg 64%
    20:00 +8°C° 0 mm 4 mps 733 mmHg 64%
    21:00 +7°C° 0 mm 4 mps 733 mmHg 64%
    22:00 +6°C° 0 mm 5 mps 734 mmHg 65%
    23:00 +6°C° 0 mm 4 mps 734 mmHg 65%

    Tomorrow, 7 April, Tuesday

    Time Temperature Precipitation Wind Pressure Humidity
    00:00 +5°C° 0 mm 4 mps 734 mmHg 64%
    01:00 +5°C° 0 mm 4 mps 734 mmHg 64%
    02:00 +5°C° 0 mm 4 mps 734 mmHg 63%
    03:00 +4°C° 0 mm 4 mps 734 mmHg 61%
    04:00 +4°C° 0 mm 4 mps 734 mmHg 59%
    05:00 +4°C° 0 mm 4 mps 735 mmHg 57%
    06:00 +5°C° 0 mm 4 mps 735 mmHg 55%
    07:00 +5°C° 0 mm 4 mps 735 mmHg 54%
    08:00 +7°C° 0 mm 4 mps 735 mmHg 51%
    09:00 +10°C° 0 mm 4 mps 735 mmHg 48%
    10:00 +11°C° 0 mm 4 mps 736 mmHg 45%
    11:00 +12°C° 0 mm 4 mps 736 mmHg 44%
    12:00 +13°C° 0 mm 4 mps 736 mmHg 42%
    13:00 +14°C° 0 mm 3 mps 736 mmHg 41%
    14:00 +14°C° 0 mm 3 mps 735 mmHg 42%
    15:00 +14°C° 0 mm 3 mps 735 mmHg 42%
    16:00 +14°C° 0 mm 3 mps 735 mmHg 43%
    17:00 +13°C° 0 mm 2 mps 735 mmHg 48%
    18:00 +12°C° 0 mm 2 mps 735 mmHg 53%
    19:00 +9°C° 0 mm 2 mps 734 mmHg 58%
    20:00 +8°C° 0 mm 2 mps 735 mmHg 58%
    21:00 +7°C° 0 mm 2 mps 735 mmHg 57%
    22:00 +7°C° 0 mm 1 mps 735 mmHg 57%
    23:00 +7°C° 0 mm 1 mps 735 mmHg 59%

    Day after tomorrow, 8 April, Wednesday

    Time Temperature Precipitation Wind Pressure Humidity
    00:00 +7°C° 0 mm 1 mps 735 mmHg 61%
    01:00 +6°C° 0 mm 1 mps 735 mmHg 63%
    02:00 +6°C° 0 mm 1 mps 734 mmHg 63%
    03:00 +6°C° 0 mm 1 mps 734 mmHg 64%
    04:00 +5°C° 0 mm 1 mps 734 mmHg 64%
    05:00 +6°C° 0 mm 1 mps 734 mmHg 62%
    06:00 +7°C° 0 mm 1 mps 734 mmHg 59%
    07:00 +8°C° 0 mm 1 mps 734 mmHg 57%
    08:00 +9°C° 0 mm 2 mps 734 mmHg 52%
    09:00 +11°C° 0 mm 3 mps 734 mmHg 47%
    10:00 +13°C° 0 mm 4 mps 733 mmHg 42%
    11:00 +14°C° 0 mm 4 mps 733 mmHg 40%
    12:00 +15°C° 0 mm 4 mps 733 mmHg 38%
    13:00 +17°C° 0 mm 4 mps 732 mmHg 37%
    14:00 +17°C° 0 mm 4 mps 732 mmHg 38%
    15:00 +17°C° 0 mm 4 mps 732 mmHg 40%
    16:00 +17°C° 0 mm 4 mps 731 mmHg 41%
    17:00 +14°C° 0 mm 3 mps 731 mmHg 49%
    18:00 +11°C° 0 mm 3 mps 730 mmHg 57%
    19:00 +9°C° 0 mm 2 mps 730 mmHg 64%
    20:00 +9°C° 0 mm 2 mps 730 mmHg 67%
    21:00 +8°C° 0 mm 2 mps 730 mmHg 69%
    22:00 +7°C° 0 mm 2 mps 730 mmHg 71%
    23:00 +7°C° 0 mm 2 mps 729 mmHg 72%

    9 April, Thursday

    Time Temperature Precipitation Wind Pressure Humidity
    00:00 +6°C° 0 mm 2 mps 729 mmHg 72%
    01:00 +6°C° 0 mm 2 mps 729 mmHg 73%
    02:00 +6°C° 0 mm 2 mps 729 mmHg 74%
    03:00 +5°C° 0 mm 2 mps 728 mmHg 74%
    04:00 +5°C° 0 mm 2 mps 728 mmHg 75%
    05:00 +6°C° 0 mm 2 mps 728 mmHg 73%
    06:00 +6°C° 0 mm 2 mps 728 mmHg 71%
    07:00 +8°C° 0 mm 1 mps 728 mmHg 69%
    08:00 +9°C° 0 mm 2 mps 728 mmHg 63%
    09:00 +12°C° 0 mm 2 mps 728 mmHg 57%
    10:00 +14°C° 0 mm 2 mps 728 mmHg 52%
    11:00 +15°C° 0 mm 2 mps 728 mmHg 50%
    12:00 +16°C° 0 mm 3 mps 728 mmHg 48%
    13:00 +17°C° 0 mm 3 mps 728 mmHg 46%
    14:00 +17°C° 0 mm 3 mps 728 mmHg 48%
    15:00 +17°C° 0 mm 3 mps 728 mmHg 50%
    16:00 +16°C° 0 mm 3 mps 727 mmHg 52%
    17:00 +15°C° 0 mm 2 mps 727 mmHg 59%
    18:00 +13°C° 0 mm 2 mps 727 mmHg 67%
    19:00 +12°C° 0 mm 2 mps 727 mmHg 74%
    20:00 +10°C° 0 mm 2 mps 728 mmHg 78%
    21:00 +10°C° 0 mm 2 mps 728 mmHg 81%
    22:00 +9°C° 0 mm 2 mps 729 mmHg 85%
    23:00 +8°C° 0 mm 2 mps 729 mmHg 86%

    10 April, Friday

    Time Temperature Precipitation Wind Pressure Humidity
    00:00 +9°C° 0 mm 1 mps 729 mmHg 87%
    01:00 +8°C° 0 mm 1 mps 729 mmHg 89%
    02:00 +7°C° 0 mm 1 mps 730 mmHg 89%
    03:00 +7°C° 0 mm 1 mps 730 mmHg 90%
    04:00 +7°C° 0 mm 1 mps 730 mmHg 91%
    05:00 +7°C° 0 mm 1 mps 730 mmHg 86%
    06:00 +7°C° 0 mm 1 mps 731 mmHg 81%
    07:00 +8°C° 0 mm 1 mps 731 mmHg 76%
    08:00 +9°C° 0 mm 1 mps 731 mmHg 64%
    09:00 +10°C° 0 mm 1 mps 731 mmHg 53%
    10:00 +12°C° 0 mm 2 mps 732 mmHg 41%
    11:00 +13°C° 0 mm 2 mps 732 mmHg 38%
    12:00 +14°C° 0 mm 2 mps 731 mmHg 35%
    13:00 +14°C° 0 mm 1 mps 731 mmHg 31%
    14:00 +14°C° 0 mm 1 mps 731 mmHg 32%
    15:00 +14°C° 0 mm 1 mps 730 mmHg 33%
    16:00 +14°C° 0 mm 1 mps 730 mmHg 33%
    17:00 +13°C° 0 mm 1 mps 730 mmHg 40%
    18:00 +11°C° 0 mm 1 mps 729 mmHg 47%
    19:00 +9°C° 0 mm 1 mps 729 mmHg 53%
    20:00 +8°C° 0 mm 1 mps 729 mmHg 55%
    21:00 +7°C° 0 mm 1 mps 729 mmHg 57%
    22:00 +7°C° 0 mm 1 mps 729 mmHg 58%
    23:00 +6°C° 0 mm 1 mps 729 mmHg 60%

    11 April, Saturday

    Time Temperature Precipitation Wind Pressure Humidity
    00:00 +6°C° 0 mm 1 mps 729 mmHg 61%
    01:00 +6°C° 0 mm 1 mps 729 mmHg 63%
    02:00 +5°C° 0 mm 1 mps 729 mmHg 64%
    03:00 +5°C° 0 mm 1 mps 728 mmHg 64%
    04:00 +5°C° 0 mm 1 mps 728 mmHg 65%
    05:00 +6°C° 0 mm 1 mps 728 mmHg 63%
    06:00 +7°C° 0 mm 1 mps 728 mmHg 62%
    07:00 +8°C° 0 mm 1 mps 728 mmHg 60%
    08:00 +9°C° 0 mm 2 mps 728 mmHg 57%
    09:00 +12°C° 0 mm 2 mps 728 mmHg 54%
    10:00 +14°C° 0 mm 2 mps 728 mmHg 51%
    11:00 +14°C° 0 mm 3 mps 727 mmHg 50%
    12:00 +16°C° 0 mm 3 mps 727 mmHg 50%
    13:00 +17°C° 0 mm 4 mps 726 mmHg 50%
    14:00 +18°C° 0 mm 3 mps 726 mmHg 49%
    15:00 +18°C° 0 mm 3 mps 725 mmHg 49%
    16:00 +18°C° 0 mm 3 mps 724 mmHg 49%
    17:00 +16°C° 0 mm 3 mps 724 mmHg 56%
    18:00 +15°C° 0 mm 2 mps 723 mmHg 63%
    19:00 +13°C° 0 mm 2 mps 723 mmHg 70%
    20:00 +12°C° 0 mm 2 mps 723 mmHg 72%
    21:00 +11°C° 0 mm 3 mps 722 mmHg 74%
    22:00 +10°C° 0 mm 3 mps 722 mmHg 75%
    23:00 +10°C° 0 mm 3 mps 722 mmHg 78%
    Show more